PROFILE

 METAR AND TAF INFORMATION
ADDS - METARS form results

(0426 UTC 25 April 2019)
http://aviationweather.gov/metar/data/
 
MMMY 250340Z 33016G26KT 10SM BKN040CB 23/14 A2985 RMK 8/300
TAF MMMY 242309Z 2500/2606 04012KT P6SM SCT030 TX32/2520Z TN18/2512Z TEMPO 2501/2505 5SM TSRA BKN025CB FM250600 34015KT P6SM SCT020 BKN100 FM251800 34015KT P6SM BKN200 

 AIRPORT MAP

 RUNWAY INFORMATION
Runway 11 Runway length 9843 ft Runway width 148 ft
Runway elevation 1277 ft Runway displaced threshold 0 ft Runway heading 121
Runway 29 Runway length 9843 ft Runway width 148 ft
Runway elevation 1234 ft Runway displaced threshold 0 ft Runway heading 301
Runway 16 Runway length 5909 ft Runway width 98 ft
Runway elevation 1271 ft Runway displaced threshold 0 ft Runway heading 165
Runway 34 Runway length 5909 ft Runway width 98 ft
Runway elevation 1254 ft Runway displaced threshold 0 ft Runway heading 345

 AIRPORT FREQUENCIES
Type APP Name MONTERREY Frequency 119.75 MHZ
Type ATIS Name ATIS Frequency 127.7 MHZ
Type GND Name GND Frequency 121.9 MHZ
Type TWR Name MONTERREY Frequency 118.1 MHZ

 AIRPORT NEAR NAVIGATION AIDS
Type VOR-DME Name Monterrey Frequency 114700 KHZ